Regional Weather Roundup
Issued by NWS

Home | Current Version | Previous Version | Text Only | Print | Product List | Glossary On
Versions: 1 2 3 4 5 6 7 8 9 10 11 12 13 14 15 16 17 18 19 20 21 22 23 24 25 26 27 28 29 30 31 32 33 34 35 36 37 38 39 40 41 42 43 44 45 46 47 48 49 50
000
ASUS43 KLSX 302107
RWRMO

WEATHER SUMMARY FOR MISSOURI
NATIONAL WEATHER SERVICE SPRINGFIELD MO
400 PM CDT THU OCT 30 2014

NOTE: "FAIR" INDICATES FEW OR NO CLOUDS BELOW 12,000 FEET WITH NO
       SIGNIFICANT WEATHER AND/OR OBSTRUCTIONS TO VISIBILITY.
       CURRENT SKY AND/OR WEATHER CONDITIONS ARE NOT AVAILABLE FOR
       CHILLICOTHE AND FARMINGTON.

MOZ001>031-035>038-043-044-053-054-302200-
...NORTHERN AND WESTERN MISSOURI...

CITY           SKY/WX    TMP DP  RH WIND       PRES   REMARKS
KANSAS CTY INT MOSUNNY   66  41  40 NW20G25   30.02R
KANSAS C DTWN  SUNNY     69  39  33 NW14G28   30.01R
LEE`S SUMMIT   SUNNY     67  39  35 NW17      30.01R
ST JOSEPH      SUNNY     67  41  38 N17       30.03R
CHILLICOTHE      N/A     66  43  43 N8        30.00R
KIRKSVILLE     SUNNY     64  44  48 VRB3      29.98R

$$
MOZ066>068-077>081-088>096-101>105-302200-
...SOUTHWEST MISSOURI...

CITY           SKY/WX    TMP DP  RH WIND       PRES   REMARKS
SPRINGFIELD    SUNNY     66  42  41 W17       29.99S
JOPLIN         SUNNY     70  39  32 NW20G28   30.03S

$$
MOZ032>034-039>042-045>050-055>058-069>072-302200-
...CENTRAL MISSOURI...

CITY           SKY/WX    TMP DP  RH WIND       PRES   REMARKS
COLUMBIA       MOSUNNY   59  48  67 SW9       29.99S
JEFFERSON CITY PTSUNNY   58  47  66 S6        29.99F
ROLLA          RAIN      49  45  86 SE17      29.95F FOG
SEDALIA        SUNNY     66  46  48 NW9       29.99R
WHITEMAN AFB   SUNNY     66  42  41 W14       29.98R
OSAGE BEACH    MOSUNNY   61  46  59 SE6       29.99R

$$
MOZ051-052-059>065-302200-
...EAST CENTRAL MISSOURI...

CITY           SKY/WX    TMP DP  RH WIND       PRES   REMARKS
ST LOUIS INTL  LGT RAIN  58  42  55 SE10      30.00F
SPIRIT OF STL  CLOUDY    55  45  68 E7        29.98F
ST CHARLES     PTSUNNY   55  46  71 E10       29.99F

$$
MOZ072>076-082>087-097>100-106>115-302200-
...SOUTH CENTRAL AND SOUTHEAST MISSOURI...

CITY           SKY/WX    TMP DP  RH WIND       PRES   REMARKS
CAPE GIRARDEAU CLOUDY    62  40  44 S6        30.04F
FARMINGTON     CLOUDY    57  39  51 SE6       30.03F
POPLAR BLUFF   CLOUDY    62  39  42 SW8       30.03F
WEST PLAINS    CLOUDY    59  40  49 S5        30.02R

$$



USA.gov is the U.S. government's official web portal to all federal, state and local government web resources and services.